Regional Weather Roundup
Issued by NWS

Home | Current Version | Previous Version | Text Only | Print | Product List | Glossary Off
Versions: 1 2 3 4 5 6 7 8 9 10 11 12 13 14 15 16 17 18 19 20 21 22 23 24 25 26 27 28 29 30 31 32 33 34 35 36 37 38 39 40 41 42 43 44 45 46 47 48 49 50

000
ASUS44 KMEG 262100
RWRTN
TENNESSEE HOURLY STATE WEATHER ROUNDUP
NATIONAL WEATHER SERVICE MEMPHIS TN
300 PM CST THU FEB 26 2015

TNZ002-004-019-021-049-052-054-088>092-262200-
WEST TENNESSEE

CITY           SKY/WX    TMP DP  RH WIND       PRES   REMARKS
MEMPHIS INTL   CLOUDY    34  27  75 NW13G21   30.19R WCI  25
NWS MEMPHIS      N/A     36 N/A N/A MISG        N/A
JACKSON        CLOUDY    38  24  57 NW17      30.16R WCI  28
DYERSBURG      CLOUDY    28  14  54 N15       30.24R WCI  17
UNION CITY     CLOUDY    27  25  93 NW17      30.19R WCI  14
PARIS          CLOUDY    30  21  69 N9        30.16R WCI  22
LEXINGTON      CLOUDY    39  23  52 NW9       30.10R WCI  33
SAVANNAH       CLOUDY    43  25  49 N12       30.10R
$$

TNZ008-025-027-028-033-062-065-066-262200-
NORTH MIDDLE TENNESSEE

CITY           SKY/WX    TMP DP  RH WIND       PRES   REMARKS
NASHVILLE      PTSUNNY   42  22  44 NW16      30.08R
CLARKSVILLE    CLOUDY    33  23  66 NW17      30.14R WCI  22
COOKEVILLE     SUNNY     43  25  49 VRB5      30.02R
CROSSVILLE     PTSUNNY   35  21  56 NW9       29.99R WCI  28
$$

TNZ061-075-076-078-094-096-097-262200-
SOUTH MIDDLE TENNESSEE

CITY           SKY/WX    TMP DP  RH WIND       PRES   REMARKS
FAYETTEVILLE   MOSUNNY   37  25  60 CALM        N/A
TULLAHOMA      MOSUNNY   39  25  56 NW8       30.04R WCI  34
WINCHESTER     MOSUNNY   37  27  65 N7        30.05R WCI  32
COLUMBIA         N/A     45  27  49 N8        30.06R
SHELBYVILLE    CLOUDY    45  28  53 N13       30.06R
$$

TNZ017-018-042-046-047-262200-
NORTHEAST TENNESSEE

CITY           SKY/WX    TMP DP  RH WIND       PRES   REMARKS
TRI CITIES     CLOUDY    35  30  82 SW7       29.95R WCI  29
ELIZABETHTON   CLOUDY    32  28  86 SW5       29.94R WCI  27
$$

TNZ012-013-036-069-073-074-262200-
CENTRAL EAST TENNESSEE

CITY           SKY/WX    TMP DP  RH WIND       PRES   REMARKS
KNOXVILLE      PTSUNNY   35  30  82 SW9       30.01R WCI  28
OAK RIDGE      CLOUDY    41  27  57 CALM      30.01R
GATLINBURG     CLOUDY    36  28  75 S5        29.99R WCI  32
$$

TNZ083-085-099-262200-
SOUTHEAST TENNESSEE

CITY           SKY/WX    TMP DP  RH WIND       PRES   REMARKS
CHATTANOOGA    PTSUNNY   42  29  59 N7        30.02R
$$

SKY/WX REPORTED AS FAIR MEANS FEW OR NO CLOUDS BELOW
12 THOUSAND FEET.




USA.gov is the U.S. government's official web portal to all federal, state and local government web resources and services.